THOR ABLESTAR DEB, 1942

Orbit data source: Space-Track

THOR ABLESTAR DEB, 1942 is space debris in LEO originally from a launch on Thu, 29 Jun 1961 UTC launched from the Air Force Eastern Test Range (AFETR). Debris objects in space refer to the collection of defunct objects orbiting the Earth. Examples of debris include non-operational satellites, rocket bodies, and fragments generated from explosions, collisions, or faulty payload assembly.

Loading next visibility...
Identifier
1942, 1961-015HS
Orbit
LEO
Country
Flag of USUS
Related business
Manufacturer
Unknown
Mission
Spacecraft
Bus & Motor
Unknown
Mass
Unknown
Launch date (UTC)
1961-06-29 (65 years ago)
Launch vehicle
Unknown
Launch site
Air Force Eastern Test Range (AFETR)
Object type
Payload
Rocket body
Debris
Shape & HBR
Unknown shape, 0.1 m
Radar Cross Section
Small (<0.1 m²)

Expand to show TLE details & history
Last TLE update: 17 hours ago

TLE from 17 hours ago
0 THOR ABLESTAR DEB
1  1942U 61015HS  26036.94952675  .00000768  00000-0  16926-2 0  9990
2  1942  67.2690 275.7448 0341993 340.0888 121.7257 13.13312209 99586
Epoch: 2026-02-05T22:47Z
TLE epoch observation values (Epoch: 2026-02-05T22:47:19.111Z)
Latitude
63.05393°
Longitude
-77.27068°
Altitude
1,363.151 km
Speed
7.115 km/s
True Right ascension
02h 42m 36s
True Declination
62° 55' 32"
Sunlit
Object was in daylight at epoch
Visualization orbit readout
Latitude
Unknown
Longitude
Unknown
Altitude
Unknown
Speed
Unknown
Apparent Right ascension
Unknown
Apparent Declination
Unknown
Sunlit
N/A
Visualization observer readout
Local Sidereal Time
18:00:13
Azimuth
Unknown
Elevation
Unknown
Doppler factor
Unknown
Orbital elements
Apogee altitude
1,468.24 km
Perigee altitude
949.306 km
Semi-major axis
7,586.91 km
Eccentricity
0.0342
Inclination
67.269°
RAAN
275.7448°
Arg. of periapsis
340.0888°
True anomaly
124.98396°
Mean anomaly
121.7257°
Eccentric anomaly
123.36227°
Mean motion
3.28432 °/min
Orbital period
109.61 mins
BSTAR
0.0016926
Loading maneuver chart data...
Computing Atmospheric mass density...

Documentation

Showing up to 5 results
|